sat.trackr.live / text

‹ back to catalog

STARLINK-3591

NORAD 51870 · 2022-022U

PAYLOAD ACTIVE UNKNOWN

§ Identity

Operator
Country
US
Launch date
2022-03-03
Launch site
AFETR
Launch vehicle
Mass (kg)
RCS (m²)

Purposes: comms

External: N2YO · Heavens-Above · Gunter

§ Orbital elements

Epoch: 2026-09-19T11:04:44.668704Z

Period
93.79 min
Inclination
53.1592°
Eccentricity
0.0001731
Mean motion
15.35424352 rev/d
Perigee alt
458.5 km
Apogee alt
460.8 km
Semi-major
6,837.8 km
B*
1.1049e-4
RAAN
208.2565°
Arg perigee
76.4452°
Mean anomaly
283.6744°
Rev number
25,256

§ Raw data

STARLINK-35911 51870U 22022U   26262.46162811  .00003478  00000+0  11049-3 0  99952 51870  53.1592 208.2565 0001731  76.4452 283.6744 15.35424352252564

JSON: /api/v1/satellites/51870 · /tle

For live sub-satellite position, see the globe view (requires WebGL).

§ Visibility from observer

Set your observer location to see the next 7 days of passes ≥ 10°. The values pass through the URL so the page stays shareable.

No JS? Fill the form by hand. The geolocation button needs JavaScript.